Theta_e
328 328 328 329 329 329 329 328 328 328 328 328 328 328 329 329 330 329 328 327 327 327 326 326 326 325 325 325 325 325 323 322 321 320 319 319 318 317 316 316 314 313
327 327 328 328 329 329 328 328 328 327 328 328 328 329 330 330 330 330 328 327 327 325 325 325 325 325 324 324 324 323 322 320 319 319 318 317 316 316 315 315 314 312
327 327 327 328 328 328 328 328 327 327 327 327 328 329 330 330 330 330 329 327 326 325 324 325 325 325 324 323 323 321 320 319 318 316 315 314 313 314 313 313 312 311
326 326 327 327 327 328 328 328 327 327 327 327 328 329 330 330 329 329 329 327 326 325 325 325 324 324 323 322 321 320 319 318 316 314 313 313 313 313 312 312 311 310
325 326 326 326 327 327 327 327 327 326 327 327 328 329 329 329 329 328 328 327 326 325 325 325 323 322 322 321 319 318 317 316 314 313 313 313 312 312 311 310 309 308
324 324 325 326 326 326 326 326 326 326 326 327 328 328 329 329 328 328 327 326 325 325 325 324 322 321 320 319 317 316 315 314 312 312 312 312 311 310 309 308 307 306
323 324 324 325 325 326 326 326 326 326 326 327 328 328 328 328 328 327 327 326 325 325 324 323 321 320 319 318 316 315 313 311 310 310 310 309 309 308 307 306 304 303
322 323 323 324 324 325 325 325 325 325 326 327 327 328 328 328 328 327 326 325 325 325 324 322 321 320 319 317 316 314 311 309 309 309 308 307 307 306 305 303 301 299
321 322 323 323 323 324 324 325 325 325 326 326 327 327 328 327 327 327 326 325 325 325 323 322 320 320 318 316 315 313 310 309 309 308 307 306 306 305 302 301 299 296
320 321 322 322 323 323 324 324 325 325 325 326 327 327 327 327 326 326 326 325 325 323 322 321 320 319 317 316 315 312 309 309 309 308 306 305 305 303 301 300 298 296
319 320 321 321 322 323 323 324 324 325 325 325 326 326 326 325 325 324 324 325 324 322 321 321 319 318 316 315 313 311 308 307 307 307 305 304 303 302 301 298 295 293
317 319 320 321 321 322 322 323 323 324 324 324 324 325 324 324 323 323 323 324 323 321 321 321 319 317 316 314 312 310 307 305 305 305 304 303 303 302 299 295 292 292
316 317 319 320 320 321 322 322 323 323 323 323 323 323 323 322 321 321 322 324 323 320 320 319 318 316 315 313 311 309 306 304 304 304 303 302 302 299 295 292 291 291
314 316 318 319 320 320 320 321 321 322 322 322 322 321 321 322 321 320 321 322 321 319 319 318 316 315 313 311 310 308 306 304 303 303 302 301 298 294 292 291 290 290
314 315 317 318 319 319 320 320 320 320 320 320 320 320 320 320 320 320 320 320 319 317 317 316 314 313 311 309 309 308 306 305 304 302 300 297 294 292 291 290 289 289
314 315 316 317 318 318 318 319 318 318 318 317 317 318 317 317 318 319 320 320 318 316 314 313 312 311 310 309 308 308 307 306 304 300 296 293 292 291 290 289 289 289
314 314 315 315 316 316 316 316 316 316 316 315 315 315 315 316 317 317 318 318 317 315 312 311 310 310 309 309 308 308 308 307 303 297 293 292 291 290 289 288 289 288
313 314 314 313 313 313 314 314 314 314 313 313 313 313 314 315 317 317 316 314 313 312 310 309 308 308 308 308 307 308 308 305 299 293 292 291 290 290 289 289 288 288
312 313 312 312 312 312 312 312 311 311 311 311 312 313 314 314 315 314 313 311 310 310 308 307 307 306 307 307 307 307 305 301 295 292 292 291 290 290 289 289 289 288
311 311 311 311 311 311 310 310 309 309 310 310 311 311 312 312 311 310 310 309 308 308 307 306 306 306 306 306 306 306 302 296 293 292 291 290 290 290 290 289 289 288
310 309 309 310 310 310 309 308 308 308 308 308 308 309 310 310 310 309 308 307 307 306 305 305 305 306 306 305 304 302 297 293 292 291 290 289 289 289 289 289 288 288
309 309 308 308 308 308 307 307 307 307 307 308 308 308 308 308 309 308 307 306 305 304 302 302 303 305 305 303 300 297 293 291 291 290 289 289 289 289 288 288 287 287
309 309 308 308 308 307 307 307 307 307 307 308 307 307 307 307 307 306 304 303 303 301 299 299 300 301 301 298 295 293 292 291 290 289 289 288 288 288 287 287 286 286
309 309 309 309 308 308 307 307 307 307 307 307 306 306 306 305 303 301 300 300 300 298 297 297 298 297 296 294 293 292 291 290 289 289 288 288 287 287 286 286 285 285
307 307 307 307 307 307 307 306 305 305 305 305 304 304 304 302 300 298 297 297 297 296 295 295 295 294 294 293 292 291 290 289 289 288 288 287 287 286 285 285 285 284
306 305 305 305 305 306 305 304 303 303 303 302 302 301 301 300 298 297 296 295 294 294 293 293 293 293 292 291 290 289 289 289 289 288 288 287 287 286 285 284 284 284
Wind_Speed
31 30 30 30 30 29 26 24 27 29 32 36 36 36 37 34 32 30 29 30 31 31 30 30 29 28 26 25 24 23 23 22 21 19 18 17 17 17 16 14 12 11
29 29 29 27 28 29 25 23 26 29 33 37 38 37 36 34 32 30 29 29 30 29 29 29 29 28 26 26 26 25 23 22 21 20 18 18 19 19 18 17 16 14
30 30 29 28 27 27 27 24 24 28 32 36 38 37 35 34 33 30 29 29 29 28 28 28 28 27 26 26 25 23 23 22 21 20 19 18 18 19 19 19 19 16
30 31 30 30 29 28 28 27 25 28 33 35 37 36 35 34 32 31 30 29 29 28 27 28 28 28 28 26 24 23 23 21 20 19 19 20 20 21 21 20 18 16
29 30 30 30 30 28 27 26 28 32 34 35 36 35 34 34 32 32 31 29 29 29 28 29 29 28 27 25 24 23 22 21 20 20 22 23 22 22 21 20 19 17
28 28 29 30 28 27 25 26 30 33 34 34 35 34 33 33 32 32 32 31 31 30 30 31 29 27 25 24 24 23 22 22 23 24 25 24 22 22 21 20 20 19
29 28 29 30 30 29 28 29 31 33 34 34 34 34 34 33 33 33 33 34 33 33 33 32 30 28 27 26 26 24 23 24 26 26 26 24 23 23 22 22 21 20
28 29 29 30 31 31 32 32 32 32 34 34 34 34 34 34 34 34 35 36 35 35 34 32 30 29 28 27 26 24 24 25 27 27 26 25 25 23 23 22 20 19
27 28 29 30 31 32 33 34 34 34 34 34 35 35 35 35 35 36 37 37 37 36 34 31 31 31 29 28 27 25 25 27 28 29 28 27 26 25 24 23 20 19
26 28 29 30 32 33 34 35 35 35 35 35 35 35 36 36 36 37 39 39 38 37 34 32 33 31 29 29 29 27 27 30 31 30 28 28 28 27 25 23 21 21
26 28 29 30 32 33 34 35 35 36 36 36 36 37 37 37 38 39 40 40 39 38 34 33 34 32 30 31 30 28 28 31 32 30 29 29 29 28 25 23 23 23
25 28 29 30 32 32 33 34 35 36 36 36 36 37 37 37 38 40 41 39 38 37 34 33 33 32 31 32 31 29 28 30 32 31 29 29 29 27 25 24 23 23
25 27 28 29 30 31 32 33 34 35 35 35 36 36 37 37 38 40 40 38 37 36 33 32 33 33 33 34 33 31 30 31 33 32 29 28 28 27 25 24 23 22
25 26 27 28 29 30 31 32 33 34 35 35 35 36 37 38 40 41 39 36 36 35 33 33 34 34 35 35 34 32 32 33 34 33 30 29 28 27 25 25 23 22
23 24 25 27 28 29 30 31 32 33 34 34 35 36 37 39 41 41 38 35 34 33 33 33 33 34 36 36 35 35 35 35 34 33 31 31 29 27 26 25 24 22
21 23 24 26 27 29 29 30 31 32 33 34 34 36 37 39 40 39 36 34 34 34 33 32 33 35 36 36 37 38 37 36 34 33 33 32 31 29 28 26 24 22
21 22 23 25 26 27 28 29 30 31 32 33 34 35 37 38 38 37 34 33 34 34 32 32 34 36 37 37 37 37 37 36 35 34 34 32 31 32 31 28 26 23
21 22 22 23 24 25 26 27 29 30 32 33 34 35 36 37 36 34 33 32 32 32 33 34 35 36 37 37 37 36 36 36 36 36 35 33 33 33 31 28 26 24
22 22 22 23 24 24 25 26 28 30 31 32 34 35 35 35 34 33 32 31 31 32 34 35 36 36 36 36 36 37 37 37 37 36 34 34 34 33 30 28 26 24
22 23 23 23 24 24 25 27 28 29 31 31 32 33 33 32 31 31 30 31 31 33 34 35 36 36 36 36 37 37 38 38 36 34 34 34 33 31 28 26 25 24
23 23 24 24 24 25 25 27 28 28 29 29 29 30 30 30 29 29 29 30 32 32 33 35 37 37 37 38 39 39 39 38 35 34 34 33 31 29 26 24 23 22
23 23 23 24 24 25 26 27 27 28 28 28 28 28 28 28 28 29 30 32 33 33 33 34 36 37 39 40 40 40 39 37 35 34 34 32 30 28 25 24 23 22
25 24 24 24 24 25 26 27 27 28 28 28 28 28 28 28 28 29 31 32 33 33 33 34 35 38 40 41 41 40 39 37 36 35 33 32 30 27 26 24 23 22
26 26 26 26 26 26 27 27 27 28 28 28 28 28 28 28 27 28 29 30 31 32 33 33 36 38 40 40 40 39 38 37 37 35 33 32 30 28 26 25 24 22
25 25 26 26 27 27 27 27 27 27 27 27 27 27 26 26 26 27 27 29 31 32 32 33 36 38 39 39 39 39 38 37 36 36 34 32 30 29 27 26 24 23
24 24 25 26 26 26 26 26 26 26 26 26 25 25 25 26 27 27 28 29 30 31 31 32 35 38 38 38 38 38 37 37 37 36 35 33 32 30 29 28 26 24
Wind_Direction
219 218 218 218 219 220 219 219 218 216 217 219 220 224 229 231 231 228 224 223 223 223 220 219 222 225 229 228 221 216 213 212 215 217 221 229 233 229 223 221 217 203
223 221 220 219 219 221 221 221 221 218 219 221 222 226 231 232 231 228 223 220 219 216 215 216 219 223 224 217 209 208 209 210 215 223 230 233 229 224 222 217 205 196
227 226 224 223 222 222 222 222 222 220 220 223 225 227 230 230 229 227 223 219 215 212 213 215 216 216 213 207 206 211 213 217 226 234 231 224 217 211 204 199 196 202
229 228 227 227 225 224 224 223 223 223 223 224 226 228 228 228 226 224 221 217 212 210 212 214 212 208 205 206 212 215 218 226 234 228 212 203 200 197 195 198 204 209
230 229 228 229 227 226 224 221 222 225 225 225 227 227 226 225 223 220 216 212 209 209 210 209 207 203 204 209 213 215 220 227 222 209 199 196 197 200 204 207 207 205
229 228 227 227 225 222 221 222 224 226 227 226 226 226 225 224 222 218 213 208 206 207 206 203 201 204 212 218 219 222 225 221 209 200 199 199 200 202 206 206 205 205
226 225 225 223 222 222 222 224 226 227 228 228 227 226 225 222 219 216 212 206 203 204 203 201 202 210 218 219 221 225 222 213 204 200 202 203 201 202 204 206 206 203
225 225 225 223 223 223 223 224 224 226 228 227 225 225 224 221 218 214 209 204 203 203 203 203 208 213 214 213 216 219 212 203 200 200 203 203 201 202 203 201 198 192
228 226 225 224 223 223 223 223 225 227 228 226 224 224 222 220 217 213 207 203 203 203 204 207 211 212 213 213 215 214 205 199 199 201 202 200 199 201 199 194 189 187
228 226 225 224 223 223 224 224 225 226 226 224 223 222 221 218 215 211 206 203 203 202 204 208 211 211 212 213 214 212 204 199 200 203 203 200 199 199 196 192 188 187
228 227 225 224 224 224 224 224 224 224 224 222 221 220 218 215 211 208 204 203 202 202 204 208 209 209 209 209 210 211 207 203 202 203 203 201 200 200 196 191 187 188
228 227 226 225 225 224 224 223 222 222 221 220 218 217 215 212 209 204 202 202 203 203 205 208 208 207 207 206 206 209 207 202 200 201 201 201 201 199 193 189 188 189
228 228 227 227 226 226 225 223 222 221 220 218 217 215 212 210 206 201 199 201 202 203 206 208 207 206 206 206 207 208 204 198 198 200 200 199 198 193 189 188 189 189
229 228 228 227 227 226 224 223 221 220 218 217 216 213 212 209 204 199 197 199 202 204 207 208 208 207 207 207 207 205 201 199 199 199 198 195 191 188 187 188 188 189
231 229 227 226 225 224 223 221 220 218 216 215 213 211 209 206 201 197 196 197 201 205 207 209 210 210 208 206 203 200 199 199 198 196 193 189 185 184 187 187 187 188
233 229 226 224 222 221 220 218 216 214 213 211 209 208 205 201 197 195 197 201 204 206 208 210 210 208 206 205 202 200 199 197 195 193 190 186 184 184 186 186 187 189
232 229 225 222 220 218 216 214 212 210 208 206 204 203 201 198 196 196 199 204 207 207 208 208 207 205 205 205 204 203 200 196 193 190 188 187 187 186 186 186 186 187
230 227 224 221 218 216 213 211 209 207 205 202 200 198 196 196 197 200 201 203 206 206 205 204 204 205 205 204 203 203 201 196 192 189 188 188 189 189 188 186 185 187
226 223 221 219 217 215 213 210 207 204 202 199 197 196 196 196 198 200 200 202 205 206 204 202 203 205 205 204 203 201 197 194 192 190 189 190 191 191 190 188 188 190
222 219 217 217 215 213 211 207 204 201 199 197 196 195 195 195 195 198 201 204 205 205 204 205 205 205 204 202 201 197 195 194 193 192 191 192 193 193 192 191 193 195
218 215 214 213 212 209 207 204 202 199 197 196 195 195 195 197 199 202 205 205 205 206 206 207 207 206 202 200 198 195 193 193 192 192 192 192 192 193 193 195 197 199
216 213 211 210 208 204 202 201 200 199 199 198 198 198 199 202 205 208 208 206 206 206 204 205 206 204 199 196 195 194 192 191 191 191 191 192 192 192 194 197 200 200
216 214 212 211 208 204 203 202 202 203 203 203 202 201 202 205 209 209 208 207 206 204 201 201 200 197 194 194 194 193 192 190 190 191 191 191 192 192 195 198 200 201
218 217 216 215 213 211 209 207 207 208 208 208 207 206 207 208 208 208 207 207 205 202 199 197 194 192 192 194 195 195 194 192 190 190 190 191 191 193 196 199 201 201
222 220 219 218 217 217 216 213 212 211 210 209 208 209 210 210 208 207 205 204 202 199 197 195 193 191 193 195 196 196 195 193 191 190 189 190 192 194 196 199 201 201
227 225 223 222 221 221 219 216 214 212 210 209 208 209 211 211 209 207 203 200 199 197 196 196 195 193 193 196 197 196 196 195 194 193 192 192 193 196 197 198 200 202